When you browse on this site, cookies collect data to enhance your experience and personalize the content and advertising you see.
Visit our Privacy Policy to learn more. By continuing to use the site, you agree to this use of cookies and data.
  • In United Kingdom
  • List of Countries
  • For 7 days
  • Water Temperature
  • Weather Map
  • Weather Widgets
  • user-avatar
    Login

    Hourly Weather Touying

    Today, 12 December, Thursday

    Time Temperature Precipitation Wind Pressure Humidity
    00:00 -3°C° 0 mm 1 mps 771 mmHg 30%
    01:00 -4°C° 0 mm 1 mps 771 mmHg 31%
    02:00 -4°C° 0 mm 1 mps 771 mmHg 31%
    03:00 -4°C° 0 mm 1 mps 771 mmHg 32%
    04:00 -4°C° 0 mm 1 mps 771 mmHg 33%
    05:00 -6°C° 0 mm 0 mps 770 mmHg 34%
    06:00 -6°C° 0 mm 0 mps 770 mmHg 34%
    07:00 -6°C° 0 mm 1 mps 770 mmHg 34%
    08:00 -4°C° 0 mm 1 mps 770 mmHg 33%
    09:00 -2°C° 0 mm 1 mps 770 mmHg 30%
    10:00 -2°C° 0 mm 2 mps 770 mmHg 26%
    11:00 +1°C° 0 mm 2 mps 770 mmHg 23%
    12:00 0°C° 0 mm 3 mps 769 mmHg 22%
    13:00 +1°C° 0 mm 3 mps 768 mmHg 21%
    14:00 +2°C° 0 mm 3 mps 767 mmHg 20%
    15:00 +2°C° 0 mm 2 mps 767 mmHg 22%
    16:00 +2°C° 0 mm 1 mps 767 mmHg 25%
    17:00 0°C° 0 mm 1 mps 767 mmHg 28%
    18:00 0°C° 0 mm 1 mps 767 mmHg 28%
    19:00 0°C° 0 mm 1 mps 767 mmHg 29%
    20:00 -1°C° 0 mm 1 mps 767 mmHg 30%
    21:00 -2°C° 0 mm 0 mps 767 mmHg 31%
    22:00 -2°C° 0 mm 0 mps 766 mmHg 31%
    23:00 -2°C° 0 mm 0 mps 766 mmHg 31%

    Tomorrow, 13 December, Friday

    Time Temperature Precipitation Wind Pressure Humidity
    00:00 -3°C° 0 mm 0 mps 766 mmHg 32%
    01:00 -3°C° 0 mm 0 mps 766 mmHg 32%
    02:00 -3°C° 0 mm 0 mps 765 mmHg 33%
    03:00 -3°C° 0 mm 0 mps 765 mmHg 34%
    04:00 -3°C° 0 mm 0 mps 765 mmHg 34%
    05:00 -2°C° 0 mm 1 mps 765 mmHg 35%
    06:00 -2°C° 0 mm 1 mps 765 mmHg 36%
    07:00 -2°C° 0 mm 1 mps 765 mmHg 36%
    08:00 -4°C° 0 mm 2 mps 766 mmHg 36%
    09:00 -2°C° 0 mm 2 mps 766 mmHg 33%
    10:00 +1°C° 0 mm 3 mps 766 mmHg 30%
    11:00 +3°C° 0 mm 3 mps 767 mmHg 26%
    12:00 +4°C° 0 mm 4 mps 767 mmHg 26%
    13:00 +5°C° 0 mm 5 mps 767 mmHg 26%
    14:00 +5°C° 0 mm 6 mps 766 mmHg 26%
    15:00 +3°C° 0 mm 5 mps 767 mmHg 29%
    16:00 +3°C° 0 mm 4 mps 768 mmHg 32%
    17:00 +1°C° 0 mm 3 mps 769 mmHg 35%
    18:00 +1°C° 0 mm 3 mps 770 mmHg 36%
    19:00 0°C° 0 mm 3 mps 770 mmHg 37%
    20:00 -1°C° 0 mm 3 mps 771 mmHg 38%
    21:00 -1°C° 0 mm 2 mps 771 mmHg 40%
    22:00 -1°C° 0 mm 2 mps 772 mmHg 41%
    23:00 -2°C° 0 mm 2 mps 772 mmHg 42%

    Day after tomorrow, 14 December, Saturday

    Time Temperature Precipitation Wind Pressure Humidity
    00:00 -2°C° 0 mm 2 mps 772 mmHg 43%
    01:00 -2°C° 0 mm 2 mps 772 mmHg 44%
    02:00 -3°C° 0 mm 2 mps 773 mmHg 46%
    03:00 -3°C° 0 mm 2 mps 773 mmHg 47%
    04:00 -1°C° 0 mm 1 mps 773 mmHg 48%
    05:00 -2°C° 0 mm 1 mps 773 mmHg 48%
    06:00 -2°C° 0 mm 1 mps 773 mmHg 49%
    07:00 -2°C° 0 mm 1 mps 773 mmHg 49%
    08:00 -2°C° 0 mm 1 mps 773 mmHg 49%
    09:00 0°C° 0 mm 1 mps 773 mmHg 44%
    10:00 +2°C° 0 mm 1 mps 774 mmHg 38%
    11:00 +4°C° 0 mm 1 mps 774 mmHg 33%
    12:00 +4°C° 0 mm 1 mps 773 mmHg 31%
    13:00 +5°C° 0 mm 1 mps 772 mmHg 29%
    14:00 +5°C° 0 mm 2 mps 771 mmHg 27%
    15:00 +5°C° 0 mm 1 mps 771 mmHg 30%
    16:00 +4°C° 0 mm 1 mps 771 mmHg 33%
    17:00 +1°C° 0 mm 0 mps 771 mmHg 36%
    18:00 +1°C° 0 mm 0 mps 771 mmHg 37%
    19:00 +2°C° 0 mm 1 mps 771 mmHg 39%
    20:00 +1°C° 0 mm 1 mps 771 mmHg 40%
    21:00 +1°C° 0 mm 1 mps 771 mmHg 42%
    22:00 +1°C° 0 mm 1 mps 771 mmHg 45%
    23:00 +1°C° 0 mm 1 mps 771 mmHg 47%

    15 December, Sunday

    Time Temperature Precipitation Wind Pressure Humidity
    00:00 +1°C° 0 mm 1 mps 771 mmHg 50%
    01:00 0°C° 0 mm 1 mps 770 mmHg 54%
    02:00 0°C° 0 mm 1 mps 770 mmHg 57%
    03:00 0°C° 0 mm 1 mps 770 mmHg 60%
    04:00 0°C° 0 mm 1 mps 770 mmHg 63%
    05:00 0°C° 0 mm 1 mps 769 mmHg 66%
    06:00 -2°C° 0 mm 0 mps 769 mmHg 67%
    07:00 -2°C° 0 mm 0 mps 770 mmHg 69%
    08:00 -2°C° 0 mm 0 mps 770 mmHg 70%
    09:00 0°C° 0 mm 0 mps 770 mmHg 62%
    10:00 +2°C° 0 mm 0 mps 769 mmHg 54%
    11:00 +4°C° 0 mm 0 mps 769 mmHg 47%
    12:00 +4°C° 0 mm 0 mps 769 mmHg 44%
    13:00 +6°C° 0 mm 1 mps 768 mmHg 42%
    14:00 +7°C° 0 mm 1 mps 767 mmHg 39%
    15:00 +6°C° 0 mm 1 mps 767 mmHg 42%
    16:00 +5°C° 0 mm 1 mps 767 mmHg 44%
    17:00 +4°C° 0 mm 1 mps 767 mmHg 47%
    18:00 +3°C° 0 mm 1 mps 767 mmHg 48%
    19:00 +3°C° 0 mm 1 mps 767 mmHg 49%
    20:00 +2°C° 0 mm 1 mps 767 mmHg 49%
    21:00 +2°C° 0 mm 1 mps 767 mmHg 49%
    22:00 +1°C° 0 mm 0 mps 767 mmHg 50%
    23:00 +1°C° 0 mm 0 mps 767 mmHg 50%

    16 December, Monday

    Time Temperature Precipitation Wind Pressure Humidity
    00:00 +2°C° 0 mm 1 mps 767 mmHg 49%
    01:00 +2°C° 0 mm 1 mps 767 mmHg 49%
    02:00 +3°C° 0 mm 1 mps 766 mmHg 48%
    03:00 +3°C° 0 mm 1 mps 766 mmHg 49%
    04:00 +3°C° 0 mm 1 mps 766 mmHg 50%
    05:00 +3°C° 0 mm 1 mps 765 mmHg 50%
    06:00 +3°C° 0.1 mm 1 mps 765 mmHg 60%
    07:00 +2°C° 0.1 mm 1 mps 765 mmHg 70%
    08:00 +1°C° 0.1 mm 2 mps 765 mmHg 81%
    09:00 +2°C° 0.1 mm 1 mps 765 mmHg 82%
    10:00 +3°C° 0.1 mm 1 mps 764 mmHg 84%
    11:00 +3°C° 0.1 mm 1 mps 764 mmHg 86%
    12:00 +3°C° 0.1 mm 1 mps 763 mmHg 87%
    13:00 +3°C° 0.1 mm 1 mps 762 mmHg 88%
    14:00 +3°C° 0.1 mm 1 mps 761 mmHg 89%
    15:00 +3°C° 0 mm 1 mps 761 mmHg 88%
    16:00 +3°C° 0 mm 1 mps 761 mmHg 87%
    17:00 +2°C° 0 mm 0 mps 761 mmHg 86%
    18:00 +3°C° 0 mm 1 mps 761 mmHg 88%
    19:00 +2°C° 0 mm 1 mps 761 mmHg 89%
    20:00 -1°C° 0 mm 2 mps 761 mmHg 91%
    21:00 -1°C° 0 mm 2 mps 761 mmHg 91%
    22:00 -1°C° 0 mm 2 mps 761 mmHg 90%
    23:00 -1°C° 0 mm 2 mps 761 mmHg 90%

    17 December, Tuesday

    Time Temperature Precipitation Wind Pressure Humidity
    00:00 -1°C° 0 mm 3 mps 761 mmHg 88%
    01:00 -1°C° 0 mm 3 mps 762 mmHg 85%
    02:00 -1°C° 0 mm 3 mps 762 mmHg 83%
    03:00 -2°C° 0 mm 4 mps 762 mmHg 76%
    04:00 -2°C° 0 mm 4 mps 763 mmHg 68%
    05:00 -2°C° 0 mm 4 mps 763 mmHg 61%
    06:00 -2°C° 0 mm 5 mps 764 mmHg 56%
    07:00 -2°C° 0 mm 5 mps 765 mmHg 52%
    08:00 -2°C° 0 mm 5 mps 766 mmHg 47%
    09:00 -1°C° 0 mm 4 mps 766 mmHg 43%
    10:00 0°C° 0 mm 4 mps 767 mmHg 38%
    11:00 +3°C° 0 mm 3 mps 767 mmHg 34%
    12:00 +3°C° 0 mm 3 mps 767 mmHg 32%
    13:00 +5°C° 0 mm 2 mps 767 mmHg 31%
    14:00 +5°C° 0 mm 2 mps 767 mmHg 29%
    15:00 +4°C° 0 mm 2 mps 767 mmHg 33%
    16:00 +4°C° 0 mm 1 mps 767 mmHg 36%
    17:00 +3°C° 0 mm 1 mps 767 mmHg 40%
    18:00 +2°C° 0 mm 1 mps 768 mmHg 41%
    19:00 +2°C° 0 mm 1 mps 769 mmHg 43%
    20:00 +1°C° 0 mm 1 mps 769 mmHg 44%
    21:00 +1°C° 0 mm 1 mps 769 mmHg 46%
    22:00 0°C° 0 mm 1 mps 770 mmHg 47%
    23:00 0°C° 0 mm 1 mps 770 mmHg 49%
    Show more